[[{"header":{"parameterUnit":"m.s-1","parameterCategory":1,"la1":30.2991,"la2":30.254,"lo1":-89.0895,"lo2":-89.0444,"dy":0.0017,"dx":0.0017,"nx":28,"ny":28,"refTime":"2023-09-18T21:00:00:Z","depth":0,"parameterNumber":2,"parameterNumberName":"U-component_of_WINDS"},"data":[0,0,0,0,0,0,0,0,0,0,0,0,0,0,0,0,0,0,0,0,0,0,0,0,0,0,0,0,0,0,0,0,0,0,0,0,0,0,0,0,0,0,0,0,0,0,0,0,0,0,0,0,0,0,0,0,0,0,-3.8381,-3.838,0,-3.832,-3.8319,-3.8318,-3.8244,-3.8242,-3.8241,-3.824,-3.8175,-3.8175,-3.8174,0,0,0,0,0,0,0,0,0,0,0,0,0,-3.843,-3.8429,-3.8381,-3.838,-3.838,-3.832,-3.8319,-3.8318,-3.8244,-3.8242,-3.8241,-3.824,-3.8175,-3.8175,-3.8174,0,0,0,0,0,0,0,0,0,0,0,0,0,-3.8393,-3.8429,-3.8381,-3.8335,-3.8331,-3.832,-3.8319,-3.8318,-3.8244,-3.8242,-3.8241,-3.8239,-3.8176,-3.8175,-3.8174,-3.8203,0,0,-3.8171,-3.817,0,0,0,0,0,0,0,0,-3.8395,-3.8391,-3.8343,-3.8338,-3.8333,-3.8288,-3.8312,-3.8279,-3.8245,-3.8277,-3.824,-3.8238,-3.8214,-3.821,-3.8202,-3.82,-3.8197,-3.8171,-3.817,-3.817,-3.817,0,0,0,0,0,0,0,-3.8398,-3.8393,-3.8357,-3.8342,-3.8336,-3.8316,-3.8309,-3.8306,-3.8256,-3.8274,-3.8268,-3.8262,-3.8211,-3.8203,-3.82,-3.8196,-3.8171,-3.817,-3.8169,-3.8169,-3.8209,-3.8211,0,0,0,0,0,0,-3.8407,-3.8396,-3.8359,-3.8355,-3.836,-3.8317,-3.8309,-3.8304,-3.8256,-3.8247,-3.8264,-3.8259,-3.8206,-3.8201,-3.8197,-3.8224,-3.817,-3.8169,-3.8168,-3.8208,-3.821,-3.8211,0,0,0,0,0,0,-3.8409,-3.8405,-3.8361,-3.8374,-3.8367,-3.8318,-3.8313,-3.8304,-3.8296,-3.8248,-3.8238,-3.8265,-3.8204,-3.8199,-3.8201,-3.8221,-3.8168,-3.8168,-3.8206,-3.8208,-3.8211,-3.8281,0,0,0,0,0,0,-3.8411,-3.8406,-3.8417,-3.8375,-3.8366,-3.8367,-3.8314,-3.8304,-3.8294,-3.8288,-3.8247,-3.8238,-3.8202,-3.8203,-3.82,-3.8219,-3.8167,-3.8204,-3.8207,-3.821,-3.8276,-3.8285,-3.8293,0,0,0,0,0,-3.8413,-3.844,-3.8418,-3.8414,-3.838,-3.8369,-3.8364,-3.8322,-3.8297,-3.8306,-3.8275,-3.824,-3.822,-3.8204,-3.82,-3.8219,-3.8202,-3.8206,-3.821,-3.8272,-3.8283,-3.8293,0,0,0,0,0,0,-3.8486,-3.8434,-3.8409,-3.8424,-3.8401,-3.8356,-3.8368,-3.8336,-3.832,-3.8314,-3.8263,-3.8254,-3.8261,-3.8241,-3.8224,-3.8242,-3.8205,-3.8209,-3.8255,-3.8265,-3.8273,-3.8276,-3.8166,0,0,0,0,0,-3.8504,-3.8501,-3.8455,-3.8472,-3.8462,-3.8417,-3.8411,-3.8381,-3.8355,-3.8345,-3.8314,-3.829,-3.8277,-3.827,-3.8257,-3.8274,-3.8261,-3.8284,-3.8293,-3.83,-3.8302,-3.8305,-3.8313,-3.8224,-3.8224,-3.8224,0,0,-3.8541,-3.8512,-3.8513,-3.8486,-3.8465,-3.846,-3.841,-3.8408,-3.8403,-3.8344,-3.8343,-3.832,-3.8289,-3.8298,-3.83,-3.8281,-3.8324,-3.8304,-3.831,-3.8309,-3.8309,-3.8318,-3.8325,-3.8226,-3.8226,-3.8225,0,0,-3.8605,-3.8585,-3.8595,-3.8575,-3.8543,-3.8513,-3.8516,-3.8475,-3.8457,-3.8456,-3.841,-3.8404,-3.8385,-3.8363,-3.835,-3.8404,-3.8368,-3.8401,-3.8443,-3.8446,-3.8453,-3.8459,-3.8474,-3.8481,-3.8404,-3.8404,-3.8404,0,-3.8655,-3.8647,-3.8604,-3.8604,-3.8592,-3.8539,-3.8547,-3.853,-3.8496,-3.8487,-3.8467,-3.8439,-3.8415,-3.8416,-3.8428,-3.8421,-3.8419,-3.8404,-3.8456,-3.8462,-3.8466,-3.848,-3.8486,-3.8408,-3.8408,-3.8407,-3.8407,0,-3.8707,-3.8702,-3.8714,-3.8682,-3.8672,-3.8676,-3.8632,-3.8626,-3.8597,-3.8568,-3.8566,-3.8535,-3.8512,-3.851,-3.8482,-3.8506,-3.8494,-3.8466,-3.8428,-3.8479,-3.8491,-3.8496,-3.8414,-3.8412,-3.8411,-3.841,0,0,-3.8814,-3.8758,-3.8762,-3.8746,-3.8707,-3.8701,-3.8702,-3.868,-3.8675,-3.8653,-3.865,-3.8634,-3.8606,-3.8591,-3.856,-3.8564,-3.8603,-3.8534,-3.8532,-3.8544,-3.8622,-3.8641,-3.8648,-3.858,-3.8581,-3.8582,-3.8623,0,-3.8868,-3.8867,-3.8827,-3.8836,-3.8829,-3.8778,-3.8778,-3.8753,-3.8727,-3.8715,-3.8685,-3.8673,-3.864,-3.8629,-3.8631,-3.8598,-3.8617,-3.8595,-3.8573,-3.8573,-3.8579,-3.8655,-3.8676,-3.8716,-3.8628,-3.8629,-3.8629,0,-3.893,-3.8911,-3.892,-3.8878,-3.8873,-3.8874,-3.8849,-3.884,-3.881,-3.879,-3.8772,-3.8736,-3.8731,-3.8698,-3.8688,-3.8674,-3.8663,-3.8645,-3.8645,-3.8639,-3.8602,-3.8647,-3.8728,-3.8733,-3.8637,-3.8636,-3.8636,0,-3.9003,-3.898,-3.898,-3.8968,-3.8921,-3.8922,-3.8902,-3.887,-3.8858,-3.8836,-3.8827,-3.8805,-3.8792,-3.8775,-3.8733,-3.8713,-3.8726,-3.869,-3.8706,-3.8707,-3.8709,-3.8709,-3.8786,-3.8708,-3.8708,-3.8708,-3.8708,0,-3.9064,-3.907,-3.9012,-3.9012,-3.9016,-3.8971,-3.8975,-3.895,-3.8922,-3.8914,-3.887,-3.8864,-3.881,-3.8797,-3.8764,-3.8759,-3.8754,-3.8735,-3.8726,-3.8737,-3.8739,-3.8727,-3.8722,-3.871,-3.8709,-3.8709,-3.8709,0,-3.9144,-3.9106,-3.9103,-3.9058,-3.9047,-3.9051,-3.9012,-3.9009,-3.8979,-3.897,-3.8965,-3.8918,-3.8899,-3.8856,-3.8827,-3.8805,-3.8806,-3.8792,-3.8817,-3.881,-3.8827,-3.8824,-3.8896,-3.8902,-3.8824,-3.8825,-3.8826,0,-3.9185,-3.9188,-3.9143,-3.9135,-3.9117,-3.9106,-3.9093,-3.9048,-3.9036,-3.9001,-3.9001,-3.898,-3.896,-3.8932,-3.8894,-3.887,-3.8852,-3.8879,-3.8848,-3.8858,-3.8848,-3.8847,-3.8845,-3.8885,-3.8886,-3.8887,-3.8888,0,-3.9258,-3.9239,-3.9224,-3.9201,-3.9188,-3.9168,-3.9145,-3.9141,-3.9089,-3.9078,-3.9059,-3.9044,-3.9013,-3.8991,-3.8961,-3.8938,-3.8903,-3.8898,-3.8899,-3.891,-3.8922,-3.8912,-3.8831,-3.8896,-3.8895,-3.8894,-3.8894,-3.8894,-3.9317,-3.9316,-3.9284,-3.9267,-3.9246,-3.9225,-3.9219,-3.9188,-3.9172,-3.9144,-3.9118,-3.9101,-3.9067,-3.9024,-3.9002,-3.8986,-3.8969,-3.8973,-3.8973,-3.8973,-3.8977,-3.8928,-3.8981,-3.8981,-3.8981,-3.898,-3.898,0,-3.9385,-3.9362,-3.9347,-3.9316,-3.9303,-3.9274,-3.9246,-3.9236,-3.9222,-3.9194,-3.9175,-3.9152,-3.9129,-3.9089,-3.9063,-3.9057,-3.904,-3.9051,-3.9049,-3.9044,-3.8996,-3.8995,-3.9065,-3.9065,-3.9065,-3.9065,-3.9065,-3.9065,-3.9418,-3.9414,-3.9391,-3.9375,-3.9351,-3.9334,-3.9321,-3.93,-3.9278,-3.9254,-3.9235,-3.921,-3.9176,-3.9146,-3.9123,-3.9111,-3.9102,-3.9118,-3.9101,-3.9056,-3.9048,-3.904,-3.9039,-3.9117,-3.9117,-3.9149,-3.9149,-3.915]},{"header":{"parameterUnit":"m.s-1","parameterCategory":1,"la1":30.2991,"la2":30.254,"lo1":-89.0895,"lo2":-89.0444,"dy":0.0017,"dx":0.0017,"nx":28,"ny":28,"refTime":"2023-09-18T21:00:00:Z","depth":0,"parameterNumber":3,"parameterNumberName":"V-component_of_WINDS"},"data":[0,0,0,0,0,0,0,0,0,0,0,0,0,0,0,0,0,0,0,0,0,0,0,0,0,0,0,0,0,0,0,0,0,0,0,0,0,0,0,0,0,0,0,0,0,0,0,0,0,0,0,0,0,0,0,0,0,0,2.3841,2.384,0,2.3751,2.375,2.3749,2.3692,2.3692,2.3691,2.3691,2.3596,2.3594,2.3591,0,0,0,0,0,0,0,0,0,0,0,0,0,2.3959,2.3957,2.3841,2.384,2.3839,2.3751,2.375,2.3749,2.3692,2.3692,2.3691,2.3691,2.3597,2.3594,2.3591,0,0,0,0,0,0,0,0,0,0,0,0,0,2.3892,2.3957,2.3841,2.38,2.3795,2.3751,2.375,2.3748,2.3692,2.3692,2.3691,2.3691,2.3597,2.3594,2.3591,2.358,0,0,2.3581,2.3579,0,0,0,0,0,0,0,0,2.3896,2.3888,2.3807,2.3803,2.3798,2.3732,2.3756,2.3692,2.3692,2.3731,2.3691,2.369,2.3641,2.3634,2.3618,2.3575,2.3571,2.358,2.3578,2.3577,2.3576,0,0,0,0,0,0,0,2.3901,2.3891,2.3805,2.3806,2.38,2.3784,2.3774,2.3744,2.369,2.3728,2.3724,2.3714,2.3639,2.3622,2.3616,2.357,2.358,2.3577,2.3575,2.3574,2.3508,2.3508,0,0,0,0,0,0,2.3912,2.3896,2.3808,2.3803,2.3847,2.3783,2.3771,2.3754,2.369,2.368,2.3714,2.3711,2.3628,2.362,2.3612,2.3592,2.3577,2.3574,2.3572,2.3508,2.3508,2.3508,0,0,0,0,0,0,2.3915,2.3905,2.3812,2.3848,2.3835,2.3781,2.3762,2.3752,2.3735,2.368,2.367,2.3707,2.3627,2.3617,2.3587,2.3588,2.3572,2.3569,2.3508,2.3508,2.3508,2.3554,0,0,0,0,0,0,2.3919,2.3907,2.3903,2.3848,2.3833,2.379,2.3762,2.3751,2.373,2.3725,2.3671,2.3661,2.3626,2.3593,2.3584,2.3583,2.3567,2.3507,2.3508,2.3508,2.3552,2.3556,2.3559,0,0,0,0,0,2.3923,2.392,2.3903,2.3893,2.3828,2.3791,2.3782,2.3742,2.373,2.3725,2.3689,2.3663,2.359,2.359,2.358,2.3578,2.3507,2.3508,2.3508,2.3551,2.3555,2.3559,0,0,0,0,0,0,2.3976,2.3912,2.3893,2.3872,2.3837,2.3781,2.3774,2.3749,2.3716,2.3713,2.3664,2.3652,2.3627,2.3599,2.3601,2.3562,2.3545,2.3544,2.3581,2.3585,2.3588,2.3595,2.3564,0,0,0,0,0,2.3985,2.3962,2.3906,2.3893,2.3876,2.3828,2.3811,2.3783,2.3744,2.3729,2.3691,2.3653,2.3621,2.3602,2.3569,2.3548,2.3533,2.3541,2.3545,2.3548,2.3547,2.353,2.3532,2.351,2.351,2.351,0,0,2.4004,2.3966,2.3954,2.3903,2.3872,2.3847,2.3816,2.3791,2.3771,2.3725,2.3694,2.3665,2.3619,2.3593,2.3579,2.3569,2.3549,2.3549,2.3551,2.3549,2.3531,2.3533,2.3535,2.3511,2.3511,2.3511,0,0,2.4025,2.3995,2.3979,2.3949,2.3903,2.3871,2.3867,2.3814,2.3793,2.3761,2.3725,2.3699,2.3647,2.3615,2.3592,2.3597,2.357,2.3588,2.3606,2.359,2.3591,2.3593,2.3592,2.3593,2.3587,2.3587,2.3587,0,2.4053,2.4015,2.3974,2.395,2.3927,2.3884,2.3866,2.3839,2.3785,2.3769,2.3759,2.3689,2.3656,2.362,2.3621,2.3604,2.3596,2.3594,2.3595,2.3595,2.3596,2.3595,2.3595,2.3589,2.3589,2.3589,2.3589,0,2.4051,2.4025,2.4017,2.3966,2.3942,2.3922,2.3875,2.3856,2.3829,2.3797,2.3764,2.3722,2.3679,2.3669,2.3643,2.3628,2.3623,2.3604,2.3586,2.3601,2.3599,2.3598,2.3593,2.3592,2.3591,2.3591,0,0,2.4103,2.4028,2.4026,2.4001,2.3947,2.3924,2.39,2.3859,2.3842,2.3806,2.3782,2.3737,2.3719,2.3693,2.3662,2.3649,2.3652,2.3631,2.3629,2.3635,2.3629,2.3643,2.3643,2.3634,2.3634,2.3634,2.3633,0,2.4114,2.4071,2.4032,2.4001,2.3975,2.3932,2.3911,2.3874,2.3842,2.3814,2.3778,2.3746,2.3726,2.3709,2.3694,2.3655,2.365,2.3655,2.361,2.3609,2.3622,2.3643,2.3657,2.3658,2.3632,2.3632,2.3632,0,2.4122,2.4087,2.4055,2.4,2.3987,2.3969,2.3926,2.39,2.3856,2.3834,2.3803,2.3771,2.3741,2.3726,2.3683,2.3687,2.3665,2.3644,2.3642,2.3636,2.3621,2.3635,2.3658,2.3658,2.363,2.3631,2.3631,0,2.416,2.4105,2.4078,2.4058,2.3995,2.3982,2.3955,2.391,2.3887,2.3849,2.3833,2.3792,2.3769,2.3736,2.3693,2.3687,2.3652,2.3635,2.3631,2.3632,2.3626,2.3627,2.3644,2.3615,2.3615,2.3615,2.3615,0,2.4176,2.4157,2.4094,2.4077,2.4054,2.4008,2.3985,2.3953,2.3914,2.3888,2.3849,2.3825,2.377,2.3738,2.3704,2.3671,2.3662,2.3641,2.3632,2.3644,2.3647,2.3629,2.3627,2.3614,2.3614,2.3614,2.3615,0,2.4215,2.4172,2.4139,2.4081,2.4066,2.4051,2.4,2.3981,2.3947,2.3915,2.3904,2.385,2.3811,2.3765,2.3711,2.3687,2.3657,2.3644,2.3672,2.3667,2.3665,2.3665,2.3671,2.3668,2.3642,2.3643,2.3643,0,2.4227,2.4211,2.4151,2.4132,2.4106,2.4075,2.4051,2.4004,2.398,2.3927,2.3913,2.3871,2.3835,2.3775,2.3729,2.3686,2.3671,2.3676,2.3665,2.3676,2.3669,2.367,2.3667,2.3679,2.368,2.368,2.3681,0,2.4252,2.4231,2.4199,2.4158,2.413,2.4096,2.4059,2.4045,2.399,2.3965,2.3925,2.3897,2.3841,2.3799,2.3751,2.372,2.369,2.3684,2.3681,2.3693,2.3709,2.3698,2.3679,2.3684,2.3684,2.3684,2.3684,2.3683,2.4276,2.4259,2.4214,2.4178,2.4146,2.4112,2.4091,2.4054,2.402,2.3972,2.3946,2.3906,2.3858,2.379,2.376,2.3726,2.3716,2.3712,2.3711,2.371,2.3713,2.3715,2.3718,2.3717,2.3717,2.3717,2.3717,0,2.4297,2.4266,2.4234,2.4184,2.4155,2.4131,2.4089,2.4065,2.4031,2.3991,2.3956,2.3908,2.3867,2.3818,2.3772,2.3754,2.3739,2.3744,2.3744,2.3737,2.3725,2.3732,2.3757,2.3757,2.3757,2.3757,2.3757,2.3757,2.4305,2.4274,2.4248,2.42,2.4168,2.413,2.4107,2.4075,2.4042,2.3992,2.3957,2.3926,2.388,2.3831,2.3791,2.3777,2.3761,2.3769,2.3751,2.3741,2.3738,2.3735,2.3741,2.3767,2.3767,2.3765,2.3766,2.3766]}]]